TimeEDT,TemperatureF,Dew PointF,Humidity,Sea Level PressureIn,VisibilityMPH,Wind Direction,Wind SpeedMPH,Gust SpeedMPH,PrecipitationIn,Events,Conditions,WindDirDegrees,DateUTC
12:15 AM,59.9,55.2,84,30.11,10.0,Calm,Calm,-,N/A,,Clear,0,2013-07-26 04:15:00
12:35 AM,59.0,54.9,86,30.11,10.0,Calm,Calm,-,N/A,,Scattered Clouds,0,2013-07-26 04:35:00
12:55 AM,58.6,54.1,85,30.11,10.0,Calm,Calm,-,N/A,,Scattered Clouds,0,2013-07-26 04:55:00
1:15 AM,57.2,53.6,88,30.12,10.0,Calm,Calm,-,N/A,,Clear,0,2013-07-26 05:15:00
1:35 AM,57.2,53.1,86,30.12,10.0,Calm,Calm,-,N/A,,Clear,0,2013-07-26 05:35:00
1:55 AM,57.4,54.3,90,30.12,10.0,Calm,Calm,-,N/A,,Clear,0,2013-07-26 05:55:00
2:15 AM,56.3,53.8,91,30.11,10.0,Calm,Calm,-,N/A,,Clear,0,2013-07-26 06:15:00
2:35 AM,57.0,54.9,92,30.10,7.0,Calm,Calm,-,N/A,,Clear,0,2013-07-26 06:35:00
2:55 AM,54.5,52.2,92,30.11,5.0,Calm,Calm,-,N/A,,Clear,0,2013-07-26 06:55:00
3:15 AM,54.3,52.3,93,30.11,7.0,Calm,Calm,-,N/A,,Clear,0,2013-07-26 07:15:00
3:35 AM,53.6,51.4,92,30.11,10.0,Calm,Calm,-,N/A,,Clear,0,2013-07-26 07:35:00
3:55 AM,54.7,52.0,91,30.11,10.0,Calm,Calm,-,N/A,,Clear,0,2013-07-26 07:55:00
4:15 AM,54.5,52.2,92,30.12,7.0,Calm,Calm,-,N/A,,Clear,0,2013-07-26 08:15:00
4:35 AM,54.5,52.7,94,30.12,2.5,Calm,Calm,-,N/A,,Scattered Clouds,0,2013-07-26 08:35:00
4:55 AM,53.4,51.8,94,30.12,1.5,Calm,Calm,-,N/A,,Overcast,0,2013-07-26 08:55:00
5:15 AM,54.5,52.9,94,30.12,7.0,Calm,Calm,-,N/A,,Scattered Clouds,0,2013-07-26 09:15:00
5:35 AM,53.6,52.0,94,30.12,10.0,Calm,Calm,-,N/A,,Clear,0,2013-07-26 09:35:00
5:55 AM,52.3,50.7,94,30.13,1.2,Calm,Calm,-,N/A,,Mostly Cloudy,0,2013-07-26 09:55:00
6:15 AM,52.5,51.1,95,30.13,0.5,Calm,Calm,-,N/A,Fog,Fog,0,2013-07-26 10:15:00
6:35 AM,53.8,52.3,95,30.13,0.8,Calm,Calm,-,N/A,,Overcast,0,2013-07-26 10:35:00
6:55 AM,55.0,53.8,96,30.13,1.2,Calm,Calm,-,N/A,,Overcast,0,2013-07-26 10:55:00
7:15 AM,56.1,54.9,96,30.14,5.0,Calm,Calm,-,N/A,,Overcast,0,2013-07-26 11:15:00
7:35 AM,56.7,55.4,96,30.15,7.0,Calm,Calm,-,N/A,,Mostly Cloudy,0,2013-07-26 11:35:00
7:55 AM,58.5,56.1,92,30.16,10.0,Calm,Calm,-,N/A,,Scattered Clouds,0,2013-07-26 11:55:00
8:15 AM,59.5,56.5,90,30.17,10.0,Calm,Calm,-,N/A,,Scattered Clouds,0,2013-07-26 12:15:00
8:35 AM,61.2,56.8,86,30.16,10.0,Calm,Calm,-,N/A,,Scattered Clouds,0,2013-07-26 12:35:00
8:55 AM,63.3,57.9,83,30.17,10.0,Calm,Calm,-,N/A,,Scattered Clouds,0,2013-07-26 12:55:00
9:15 AM,64.8,57.6,77,30.17,10.0,Calm,Calm,-,N/A,,Mostly Cloudy,0,2013-07-26 13:15:00
9:35 AM,66.2,57.7,74,30.16,10.0,Calm,Calm,-,N/A,,Scattered Clouds,0,2013-07-26 13:35:00
9:55 AM,67.1,58.5,74,30.16,10.0,East,3.5,-,N/A,,Scattered Clouds,90,2013-07-26 13:55:00
10:15 AM,68.4,57.2,67,30.16,10.0,Calm,Calm,-,N/A,,Scattered Clouds,0,2013-07-26 14:15:00
10:35 AM,70.3,56.1,61,30.15,10.0,SSE,3.5,-,N/A,,Scattered Clouds,150,2013-07-26 14:35:00
10:55 AM,72.0,54.5,54,30.15,10.0,Calm,Calm,-,N/A,,Clear,0,2013-07-26 14:55:00
11:15 AM,73.2,49.8,44,30.15,10.0,Calm,Calm,-,N/A,,Scattered Clouds,0,2013-07-26 15:15:00
11:35 AM,74.5,53.6,48,30.15,10.0,Calm,Calm,-,N/A,,Scattered Clouds,0,2013-07-26 15:35:00
11:55 AM,74.3,52.9,47,30.14,10.0,SW,3.5,-,N/A,,Clear,230,2013-07-26 15:55:00
12:15 PM,73.9,54.3,50,30.14,10.0,WSW,5.8,-,N/A,,Clear,240,2013-07-26 16:15:00
12:35 PM,74.5,53.4,48,30.14,10.0,WSW,4.6,-,N/A,,Scattered Clouds,250,2013-07-26 16:35:00
12:55 PM,75.7,53.2,45,30.14,10.0,Calm,Calm,-,N/A,,Scattered Clouds,0,2013-07-26 16:55:00
1:15 PM,75.6,53.2,46,30.13,10.0,Calm,Calm,-,N/A,,Clear,0,2013-07-26 17:15:00
1:35 PM,77.9,53.2,42,30.12,10.0,SSW,4.6,-,N/A,,Scattered Clouds,210,2013-07-26 17:35:00
1:55 PM,78.1,53.6,43,30.12,10.0,WSW,5.8,-,N/A,,Scattered Clouds,240,2013-07-26 17:55:00
2:15 PM,79.2,54.5,42,30.11,10.0,Calm,Calm,-,N/A,,Scattered Clouds,0,2013-07-26 18:15:00
2:35 PM,80.2,55.2,42,30.11,10.0,SSE,6.9,-,N/A,,Mostly Cloudy,160,2013-07-26 18:35:00
2:55 PM,80.1,52.5,38,30.11,10.0,Calm,Calm,-,N/A,,Mostly Cloudy,0,2013-07-26 18:55:00
3:15 PM,81.0,52.9,38,30.10,10.0,SW,6.9,-,N/A,,Mostly Cloudy,220,2013-07-26 19:15:00
3:35 PM,80.2,52.5,38,30.09,10.0,WSW,5.8,-,N/A,,Scattered Clouds,250,2013-07-26 19:35:00
3:55 PM,79.7,54.5,42,30.09,10.0,ESE,4.6,-,N/A,,Mostly Cloudy,120,2013-07-26 19:55:00
4:15 PM,80.8,56.7,43,30.08,10.0,South,8.1,-,N/A,,Mostly Cloudy,180,2013-07-26 20:15:00
4:35 PM,79.3,57.7,47,30.08,10.0,South,4.6,-,N/A,,Mostly Cloudy,180,2013-07-26 20:35:00
4:55 PM,80.4,58.3,47,30.08,10.0,SSE,6.9,-,N/A,,Mostly Cloudy,160,2013-07-26 20:55:00
5:15 PM,80.1,58.5,48,30.08,10.0,SSE,6.9,-,N/A,,Scattered Clouds,150,2013-07-26 21:15:00
5:35 PM,79.7,59.0,49,30.07,10.0,SE,9.2,-,N/A,,Scattered Clouds,140,2013-07-26 21:35:00
5:55 PM,79.5,58.8,49,30.07,10.0,South,10.4,-,N/A,,Clear,170,2013-07-26 21:55:00
6:15 PM,79.2,59.2,50,30.07,10.0,SSE,6.9,-,N/A,,Clear,150,2013-07-26 22:15:00
6:35 PM,78.8,60.1,53,30.07,10.0,South,8.1,-,N/A,,Clear,170,2013-07-26 22:35:00
6:55 PM,78.1,60.3,54,30.07,10.0,SSE,6.9,-,N/A,,Clear,160,2013-07-26 22:55:00
7:15 PM,77.4,60.8,57,30.07,10.0,SSE,6.9,-,N/A,,Clear,160,2013-07-26 23:15:00
7:35 PM,76.5,60.6,58,30.07,10.0,SSE,5.8,-,N/A,,Clear,150,2013-07-26 23:35:00
7:55 PM,75.2,60.8,61,30.07,10.0,SSE,3.5,-,N/A,,Clear,160,2013-07-26 23:55:00
8:15 PM,73.8,61.5,65,30.07,10.0,SSE,3.5,-,N/A,,Clear,150,2013-07-27 00:15:00
8:35 PM,72.7,61.2,67,30.08,10.0,SSE,5.8,-,N/A,,Clear,150,2013-07-27 00:35:00
8:55 PM,72.5,60.8,67,30.08,10.0,SSE,4.6,-,N/A,,Clear,160,2013-07-27 00:55:00
9:15 PM,71.4,60.6,69,30.08,10.0,Calm,Calm,-,N/A,,Clear,0,2013-07-27 01:15:00
9:35 PM,70.9,60.6,70,30.08,10.0,South,3.5,-,N/A,,Clear,190,2013-07-27 01:35:00
9:55 PM,70.5,60.4,70,30.09,10.0,Calm,Calm,-,N/A,,Clear,0,2013-07-27 01:55:00
10:15 PM,67.5,60.4,78,30.10,10.0,Calm,Calm,-,N/A,,Clear,0,2013-07-27 02:15:00
10:35 PM,68.2,60.8,77,30.10,10.0,South,3.5,-,N/A,,Clear,190,2013-07-27 02:35:00
10:55 PM,67.5,60.8,79,30.10,10.0,Calm,Calm,-,N/A,,Clear,0,2013-07-27 02:55:00
11:15 PM,65.5,60.4,84,30.10,10.0,Calm,Calm,-,N/A,,Clear,0,2013-07-27 03:15:00
11:35 PM,65.3,60.3,84,30.10,10.0,Calm,Calm,-,N/A,,Clear,0,2013-07-27 03:35:00
11:55 PM,65.5,60.8,85,30.10,10.0,Calm,Calm,-,N/A,,Clear,0,2013-07-27 03:55:00